Location: Launois
(49.6535°N, 4.5395°E)
Time: 15:09:48
(UTC+00:00)

Cosmos 1703 Rocket - Pass Details

Date: 23 May 2024
Orbit: 602 x 629 km, 82.5° (Epoch: 18 June)

Event Time Altitude Azimuth Distance (km) Brightness Sun altitude
Exits shadow 00:59:01 27° 159° (SSE) 1,217 4.6 -17.5°
Maximum altitude 01:01:13 53° 95° (E) 776 4.1 -17.4°
Drops below altitude 10° 01:05:33 10° 19° (NNE) 2,015 7.5 -17.1°
Sets 01:07:51 0° 14° (NNE) 2,930 8.8 -17.0°
